sat.trackr.live / text

‹ back to catalog

STARLINK-5427

NORAD 54853 · 2022-177AK

PAYLOAD ACTIVE UNKNOWN

§ Identity

Operator
Country
US
Launch date
2022-12-28
Launch site
AFETR
Launch vehicle
Mass (kg)
RCS (m²)

Purposes: comms

External: N2YO · Heavens-Above · Gunter

§ Orbital elements

Epoch: 2026-09-20T06:49:35.857056Z

Period
94.27 min
Inclination
43.0037°
Eccentricity
0.0001780
Mean motion
15.27570823 rev/d
Perigee alt
481.9 km
Apogee alt
484.3 km
Semi-major
6,861.2 km
B*
-2.4024e-5
RAAN
102.4219°
Arg perigee
261.3182°
Mean anomaly
98.7468°
Rev number
20,685

§ Raw data

STARLINK-54271 54853U 22177AK  26263.28444279 -.00000923  00000+0 -24024-4 0  99942 54853  43.0037 102.4219 0001780 261.3182  98.7468 15.27570823206855

JSON: /api/v1/satellites/54853 · /tle

For live sub-satellite position, see the globe view (requires WebGL).

§ Visibility from observer

Set your observer location to see the next 7 days of passes ≥ 10°. The values pass through the URL so the page stays shareable.

No JS? Fill the form by hand. The geolocation button needs JavaScript.